星链-35950(STARLINK-35950)

导读

STARLINK-35950是美国太空探索技术公司(SpaceX)星链(Starlink)卫星星座的一员,星链项目旨在构建全球卫星互联网,为全球用户提供高速低延迟的宽带服务。该卫星于2025年11月23日由美国发射,是星链计划不断扩展星座规模、完善全球覆盖布局的最新组成部分。

Basic Information
目录编号:
66622
目录名称:
STARLINK-35950
国际标识:
2025-271F
轨道中心:
EARTH
卫星名称:
星链-35950
卫星全名:
星链-35950(STARLINK-35950)
卫星状态:
在轨 (已飞行285 天)
发射日期:
2025-11-23 UTC
国别 :
美国 (US)
星等 :
--
Orbit Information
数据来源 国际轨道数据 AOE轨道数据
星历时间 2026-09-03T18:14:08+0800
20小时前
查看轨道信息
2026-08-30T03:00:00+0800
5天前
查看轨道信息
半长轴 6840.86km 6840.78km
偏心率 0.0001099 0.0000909
轨道倾角 53.160° 53.163°
近地点辐角 131.297° 16.192°
升交点赤经 33.326° 55.001°
平近点角 228.813° 287.813°
近地点 461.971km 462.021km
远地点 463.475km 463.265km
周期 93.848分钟 93.847分钟
每日圈数 15.343934 15.344204
Detailed Information
固有亮度:
5
最大亮度:
2.5
卫星平台:
Starlink V1.0
覆盖范围:
全球
运营商:
太空探索技术公司
运营商所在国:
美国
制造商(研发单位):
太空探索技术公司
制造商所在国:
美国
使用方式:
暂无
Satellite Introduction
Starlink 计划是 SpaceX 推出的全球卫星互联网项目,通过发射低轨道卫星,为全球尤其是偏远地区提供高速、低延迟的互联网服务。自 2019 年起,Starlink 已部署数千颗卫星,旨在缩小全球数字鸿沟,推动互联网普及。该项目还为军事、航空等行业提供通信支持,带来广泛经济效益。
2D Orbit Map
3D Orbit Map
Orbit Altitude Analysis Chart
Orbit Inclination Analysis Chart
Orbit Comprehensive Analysis Chart
View Comprehensive Chart
Conjunction Data List
Event ID Objects TCA Miss Dist (km) Collision Risk Probability Collision Risk Index (CRI) Action
CDM_260904-153006-425606-662222
2026-09-04T
15:30:07+0000
0.532 km
远距离
6.654357E-5 中风险 0.71
CDM_260904-064903-279106-662221
SEEDS (32791)
2026-09-04T
06:49:23+0000
0.893 km
远距离
3.843684E-5 中风险 0.67
CDM_260904-165806-662206-952421
2026-09-04T
16:58:40+0000
0.913 km
远距离
2.43489E-5 中风险 0.63
CDM_260903-002005-854806-662223
2026-09-03T
00:20:58+0000
1.008 km
极远距离
1.66433E-5 中风险 0.59
CDM_260904-100506-662206-984321
2026-09-04T
10:05:31+0000
0.847 km
远距离
1.224589E-5 中风险 0.57
CDM_260904-181206-563806-662221
2026-09-04T
18:12:59+0000
1.266 km
极远距离
1.038343E-5 中风险 0.55
CDM_260904-214005-853706-662221
2026-09-04T
21:40:29+0000
1.210 km
极远距离
8.924921E-6 低风险 0.54
CDM_260904-175006-425606-662222
2026-09-04T
17:50:47+0000
1.161 km
极远距离
5.314528E-6 低风险 0.5
CDM_260904-233206-546206-662221
2026-09-04T
23:32:38+0000
1.500 km
极远距离
5.262969E-6 低风险 0.49
CDM_260904-222606-662206-952421
2026-09-04T
22:26:55+0000
1.442 km
极远距离
5.099693E-6 低风险 0.49